Weather observations for the past three days for
Pohnpei - NWS Office
Metric (Imperial)
Date Time (+11) Wind (kph) Vis. (km) Weather Sky Cond. Temperature (ºC) Relative Humidity Wind Chill (°C) Heat Index (°C) Pressure Precipitation (cm)
Air Dwpt 6 hour altimeter (cm) sea level (mb) 1 hr 3 hr 6 hr
Max. Min.
08 08:53 NE 7 4.83 Light Showers Rain OVC017CB 25.7 24.4 93% 27 75.77 1010.1
08 07:55 E 9 4.83 Light Showers Rain BKN017CB OVC130 25.5 24.6 95% 27 75.74 1009.9 0.3
08 06:54 E 7 16.09 Light Rain BKN017TCU OVC130 25 24.8 99% 25 75.67 1008.9
08 05:50 SE 9 19.31 Light Showers Rain BKN017TCU OVC130 26 24.6 92% 28 75.59 1007.8
08 04:53 Calm 19.31 Overcast BKN017TCU OVC130 26 24.6 27 25.5 92% 28 75.57 1007.3 0.79
08 03:50 E 13 8.05 Light Showers Rain BKN017TCU OVC130 25.5 24.6 95% 27 75.57 1007.3
08 02:55 SE 7 8.05 Light Showers Rain BKN017TCU OVC130 25.5 24.6 95% 27 75.57 1007.4
08 01:55 E 11 19.31 Overcast BKN017TCU OVC130 27 25.4 91% 31 75.57 1007.4 0.3
08 00:59 E 7 12.87 Light Showers Rain OVC018TCU 27 24.9 88% 31 75.62 1008.0
07 23:54 Calm 12.87 Light Showers Rain OVC018TCU 26.1 25.4 96% 29 75.67 1008.9
07 22:58 E 7 16.09 Overcast BKN018TCU OVC120 26.1 24.8 27.4 26.1 93% 28 75.69 1009.2 0.25
07 21:52 E 4 16.09 Mostly Cloudy SCT017TCU BKN120 27 24.3 85% 30 75.72 1009.3
07 20:53 E 6 16.09 Mostly Cloudy SCT017TCU BKN120 27.4 24.3 83% 31 75.72 1009.3
07 19:56 E 4 16.09 Overcast BKN017TCU OVC120 27.2 24.2 84% 31 75.67 1008.8 1.91
07 18:54 E 19 16.09 Light Showers Rain BKN017TCU OVC120 27.3 24.4 84% 31 75.67 1008.6
07 17:50 E 15 16.09 Overcast BKN017TCU OVC120 27.1 25.1 89% 31 75.54 1007.2
07 16:50 E 13 G 31 16.09 Light Showers Rain BKN017TCU OVC120 27.4 24.4 27.8 26.8 84% 31 75.49 1006.4 0.25
07 16:10 NE 15 12.87 Light Showers Rain OVC017TCU 27.2 24.6 86% 31 75.49 1006.4
07 14:51 E 20 G 65 12.87 Light Showers Rain OVC017TCU 26.8 24.7 88% 30 75.51 1006.7
07 13:51 E 20 G 44 16.09 Light Showers Rain OVC017TCU 27 24 84% 30 75.69 1009.0 0.18
07 12:59 E 11 16.09 Light Showers Rain BKN017TCU OVC120 27.2 24.4 85% 31 75.59 1007.7
07 11:55 N 15 16.09 Overcast SCT017 OVC120 27.8 25.3 86% 33 75.67 1008.6
07 10:50 E 15 14.48 Overcast SCT017 OVC120 27 24.5 27 25 86% 30 75.69 1009.2 0.36
07 09:50 NE 9 11.27 Light Rain SCT017TCU OVC120 26 25.1 95% 28 75.74 1009.9
07 08:55 SE 6 22.53 Light Rain BKN017TCU OVC120 26.2 25.2 94% 29 75.79 1010.3
07 07:52 SE 6 22.53 Light Rain BKN017TCU OVC120 25.5 24.8 96% 27 75.77 1010.2 0.25
07 06:55 SE 6 22.53 Light Rain BKN017TCU OVC120 25.5 24.8 96% 27 75.77 1010.0
07 05:55 SE 6 22.53 Light Rain BKN017TCU OVC120 25 23.5 91% 26 75.72 1009.3
07 04:55 SE 9 22.53 Light Rain BKN017TCU OVC120 25.2 23.5 25.9 24.9 90% 26 75.67 1008.6 1.27
07 03:55 SE 6 22.53 Light Rain BKN017TCU OVC120 24.9 24.3 96% 25 75.64 1008.4
07 02:55 SE 6 22.53 Light Rain BKN017TCU OVC120 25.1 24.6 97% 26 75.64 1008.5
07 01:55 SE 7 22.53 Light Rain BKN017TCU OVC120 25.2 24.5 96% 26 75.69 1009.2 0.86
07 00:55 SE 6 22.53 Light Rain BKN017TCU OVC120 25.8 24.5 93% 28 75.79 1010.4
06 23:50 SE 9 22.53 Light Rain BKN017TCU OVC120 25.9 24.5 92% 28 75.82 1010.9
06 22:52 SE 6 22.53 Light Rain BKN017TCU OVC120 25 24.3 26.2 25 96% 25 75.79 1010.3 1.8
06 21:50 SE 7 24.14 Overcast BKN018TCU OVC130 25.2 23.5 90% 26 75.79 1010.5
06 20:55 SE 9 22.53 Light Showers Rain BKN017TCU OVC120 26.1 24.8 93% 28 75.79 1010.4
06 19:52 SE 9 22.53 Light Showers Rain BKN017TCU OVC120 26 24.6 92% 28 75.77 1010.2 1.24
06 18:52 SE 9 22.53 Light Showers Rain BKN017TCU OVC120 25 24.7 98% 25 75.69 1009.1
06 17:55 SE 17 G 35 22.53 Showers Rain BKN017TCU BKN130 OVC300 25.2 24.7 97% 26 75.69 1009.0
06 16:50 SE 7 G 35 22.53 Light Showers Rain BKN017TCU BKN130 OVC300 26.2 24.7 32.6 26.2 91% 29 75.59 1007.7 0.36
06 15:52 NE 9 24.14 Overcast BKN017TCU BKN130 OVC300 30.2 24.7 72% 36 75.57 1007.4
06 14:53 E 7 24.14 Overcast SCT017TCU BKN130 OVC300 30.1 25 74% 36 75.59 1007.6
06 13:51 E 9 24.14 Light Showers Rain SCT017TCU BKN130 OVC300 28 25.5 86% 33 75.62 1008.2 0.05
06 12:57 E 13 24.14 Overcast SCT017TCU BKN130 OVC300 31 25.3 72% 38 75.64 1008.5
06 11:54 E 7 24.14 Overcast SCT017TCU BKN130 OVC300 32.6 24.1 61% 39 75.69 1009.1
06 10:53 E 9 24.14 Overcast SCT017TCU BKN130 OVC300 30.2 25.7 30.6 25.9 77% 37 75.72 1009.5 0.05
06 09:55 E 4 24.14 Overcast SCT017 BKN130 OVC300 30.6 25 72% 37 75.72 1009.6
06 08:55 NE 7 24.14 Overcast SCT017TCU BKN130 OVC300 29 25.7 82% 35 75.72 1009.6
06 06:50 E 7 24.14 Overcast BKN017TCU BKN130 OVC300 28.5 24.8 80% 33 75.67 1008.6
06 05:55 E 6 24.14 Overcast BKN017TCU BKN130 OVC300 26.2 25.1 94% 29 75.62 1008.1
06 04:50 E 7 24.14 Overcast BKN017TCU BKN130 OVC300 25.9 25.3 26.8 25.8 97% 28 75.62 1008.1
06 03:52 Calm 22.53 Overcast BKN017TCU BKN130 OVC300 25.8 25.5 98% 28 75.62 1008.2
06 01:53 Calm 22.53 Overcast BKN017TCU BKN130 OVC300 25.9 25.5 98% 28 75.67 1008.9
06 00:54 E 6 22.53 Overcast BKN017TCU BKN130 OVC300 26 25.4 97% 28 75.77 1010.0
05 23:53 E 6 19.31 Overcast BKN017TCU OVC120 26 25.3 96% 28 75.84 1011.0
05 22:54 E 15 19.31 Overcast BKN017CB OVC120 26.8 25.6 29.5 26.8 93% 30 75.87 1011.5 0.48
05 21:53 SE 13 G 37 19.31 Overcast BKN017CB OVC120 28 25.1 84% 33 75.87 1011.3
05 20:54 E 17 19.31 Overcast BKN017CB OVC120 27.5 25.5 89% 32 75.82 1010.7
05 19:55 E 17 3.22 Heavy Showers Rain BKN017CB OVC120 28.5 25.8 85% 34 75.77 1010.2
05 18:53 E 13 19.31 Overcast BKN018TCU OVC130 29 26.3 85% 36 75.72 1009.5
05 17:50 NE 13 G 33 16.09 Overcast BKN018TCU OVC130 29.5 25.5 79% 36 75.64 1008.5
05 16:53 E 13 24.14 Overcast BKN018TCU OVC130 29.5 26.2 30.8 29 82% 37 75.62 1008.0 0.1
05 15:52 E 9 24.14 Overcast BKN018TCU OVC130 29 26.3 85% 36 75.59 1007.9
05 14:50 NE 13 24.14 Overcast BKN018TCU OVC130 30.8 27.1 81% 40 75.62 1008.2
05 13:55 SE 13 24.14 Overcast BKN018TCU OVC130 30.2 26.2 79% 38 75.64 1008.5
05 12:55 SE 7 22.53 Light Rain BKN018TCU OVC130 30.2 25.9 78% 38 75.69 1009.0
05 11:55 SE 9 24.14 Overcast BKN018TCU OVC130 30 24.5 72% 36 75.72 1009.4
05 10:55 SE 20 G 44 24.14 Overcast BKN018TCU OVC130 29.2 24.9 29.2 23.7 78% 35 75.72 1009.3 0.03
05 09:55 SE 19 G 30 24.14 Overcast BKN017TCU OVC120 27.9 26 89% 33 75.72 1009.4
Date Time (+11) Wind (kph) Vis. (km) Weather Sky Cond. Air Dwpt Max. Min. Relative Humidity Wind Chill (°C) Heat Index (°C) altimeter (cm) sea level (mb) 1 hr 3 hr 6 hr
6 hour
Temperature (ºC) Pressure Precipitation (cm)